User: anonymous   Login
Location: Geroldsau
(48.7259°N, 8.2466°E)
Time: 05:52:55
(UTC+00:00)
Language:

Cosmos 1553 Rocket - Orbit

View from above orbital plane
View from above orbital plane
View from above satellite
View from above satellite

Ground track
Ground track

The orbit data is extracted from the following two-line orbital elements,

1 14974U 84046B   21260.44612309 -.00000084  00000-0 -10008-3 0  9993
2 14974  82.9329  66.6959 0044535 335.7928  43.0907 13.76941367875717
Epoch (UTC): 17 September 2021 10:42:25
Eccentricity: 0.0044535
inclination: 82.9329°
perigee height: 942 km
apogee height: 1007 km
right ascension of ascending node: 66.6959°
argument of perigee: 335.7928°
revolutions per day: 13.76941367
mean anomaly at epoch: 43.0907°
orbit number at epoch: 87571

The dashed part of the orbit path shows where the satellite is in the earth's shadow,  

DLR